Change the Weather History Date:

Monday, March 5, 2012

  Actual Average Record
Temperature  
Mean Temperature 22 °F -  
Max Temperature 28 °F 41 °F 67 °F (1974)
Min Temperature 17 °F 23 °F -3 °F (1972)
Degree Days  
Heating Degree Days 42    
Moisture  
Dew Point 10 °F    
Average Humidity 64    
Maximum Humidity 81    
Minimum Humidity 34    
Precipitation  
Precipitation 0.00 in - - ()
Sea Level Pressure  
Sea Level Pressure 30.15 in    
Wind  
Wind Speed 9 mph (NW)    
Max Wind Speed 16 mph    
Max Gust Speed 25 mph    
Visibility 8 miles    
Events Snow    
Averages and records for this station are not official NWS values.
T = Trace of Precipitation, MM = Missing Value Source: NWS Daily Summary

Daily Weather History Graph

Daily Weather History Graph

Search for Another Location

Airport or City:

Trip Planner

Search our weather history database for the weather conditions in past years. The results will help you decide how hot, cold, wet, or windy it might be!

Date:

Astronomy

Mar. 05, 2012 Rise Set
Actual Time 6:39 AM EST 6:06 PM EST
Civil Twilight 6:10 AM EST 6:34 PM EST
Nautical Twilight 5:38 AM EST 7:06 PM EST
Astronomical Twilight 5:05 AM EST 7:39 PM EST
Moon 3:19 PM EST (3/5) 4:40 AM EST (3/5)
Length of Visible Light 12h 23m
Length of Day
11h 26m
Waxing Gibbous, 91% of the Moon is Illuminated
Mar 5
Waxing Gibbous
Mar 8
Full
Mar 14
Last Quarter
Mar 22
New
Mar 30
First Quarter

Hourly Weather History & Observations

Time (EST) Temp. Windchill Dew Point Humidity Pressure Visibility Wind Dir Wind Speed Gust Speed Precip Events Conditions
12:46 AM 21.2 °F 10.1 °F 15.8 °F 80% 29.84 in 6.0 mi NW 10.4 mph - 0.00 in Snow Light Snow
12:54 AM 21.9 °F 13.4 °F 16.0 °F 78% 29.89 in 6.0 mi NNW 6.9 mph - 0.00 in Snow Light Snow
1:54 AM 21.0 °F 9.9 °F 16.0 °F 81% 29.92 in 5.0 mi NNW 10.4 mph - 0.00 in Snow Light Snow
2:54 AM 19.9 °F 7.9 °F 14.0 °F 78% 29.93 in 4.0 mi NNW 11.5 mph - 0.00 in Snow Light Snow
3:54 AM 19.0 °F 7.5 °F 12.0 °F 74% 29.94 in 10.0 mi North 10.4 mph - 0.00 in   Overcast
4:54 AM 18.0 °F 6.9 °F 12.0 °F 78% 29.97 in 9.0 mi NNW 9.2 mph - 0.00 in   Overcast
5:17 AM 19.4 °F 9.5 °F 12.2 °F 74% 29.93 in 4.0 mi NNW 8.1 mph - 0.00 in Snow Light Snow
5:54 AM 18.0 °F 7.7 °F 10.0 °F 71% 30.00 in 10.0 mi NW 8.1 mph - 0.00 in   Overcast
6:29 AM 17.6 °F 12.3 °F 8.6 °F 68% 29.96 in 10.0 mi WNW 3.5 mph - N/A   Overcast
6:54 AM 17.1 °F 10.0 °F 9.0 °F 71% 30.03 in 10.0 mi WNW 4.6 mph - N/A   Overcast
7:36 AM 17.6 °F 5.0 °F 12.2 °F 79% 30.00 in 1.8 mi NNW 11.5 mph - 0.00 in Snow Light Snow
7:54 AM 17.1 °F 3.6 °F 12.0 °F 81% 30.08 in 2.0 mi NNW 12.7 mph - 0.00 in Snow Light Snow
8:54 AM 17.1 °F 5.0 °F 10.9 °F 77% 30.12 in 2.0 mi NNW 10.4 mph - 0.00 in Snow Light Snow
9:13 AM 17.6 °F 4.3 °F 10.4 °F 73% 30.07 in 3.0 mi NNW 12.7 mph - 0.00 in Snow Light Snow
9:54 AM 19.0 °F 6.8 °F 10.9 °F 71% 30.14 in 9.0 mi NNW 11.5 mph - 0.00 in   Overcast
10:54 AM 21.0 °F 8.6 °F 10.9 °F 65% 30.17 in 10.0 mi NNW 12.7 mph - N/A   Mostly Cloudy
11:03 AM 21.2 °F 9.5 °F 10.4 °F 63% 30.11 in 10.0 mi North 11.5 mph - N/A   Mostly Cloudy
11:54 AM 24.1 °F 12.5 °F 10.0 °F 55% 30.19 in 10.0 mi NNW 12.7 mph - N/A   Partly Cloudy
12:54 PM 27.0 °F 14.7 °F 7.0 °F 43% 30.20 in 10.0 mi NW 16.1 mph - N/A   Clear
1:54 PM 28.0 °F 18.1 °F 6.1 °F 39% 30.22 in 10.0 mi NNW 11.5 mph 19.6 mph N/A   Clear
2:54 PM 28.0 °F 17.5 °F 5.0 °F 38% 30.25 in 10.0 mi WNW 12.7 mph 25.3 mph N/A   Clear
3:54 PM 28.0 °F 16.5 °F 3.0 °F 34% 30.28 in 10.0 mi NW 15.0 mph 20.7 mph N/A   Clear
4:54 PM 27.0 °F 16.7 °F 3.9 °F 37% 30.31 in 10.0 mi NW 11.5 mph 18.4 mph N/A   Clear
5:54 PM 26.1 °F 18.4 °F 6.1 °F 43% 30.34 in 10.0 mi WNW 6.9 mph - N/A   Scattered Clouds
6:54 PM 25.0 °F 17.1 °F 8.1 °F 49% 30.36 in 10.0 mi WNW 6.9 mph - N/A   Partly Cloudy
7:54 PM 25.0 °F 20.7 °F 10.9 °F 55% 30.39 in 10.0 mi WSW 3.5 mph - N/A   Clear
8:54 PM 25.0 °F 20.7 °F 12.9 °F 60% 30.43 in 10.0 mi West 3.5 mph - N/A   Overcast
9:54 PM 23.0 °F - 12.0 °F 63% 30.44 in 10.0 mi Calm Calm - N/A   Overcast
10:54 PM 23.0 °F - 10.9 °F 60% 30.45 in 10.0 mi Calm Calm - N/A   Clear
11:54 PM 19.9 °F - 14.0 °F 78% 30.47 in 10.0 mi Calm Calm - N/A   Partly Cloudy